Simultaneous Nadir Overpasses (SNOs) Predictions

Prediction of SNOs between NOAA-20 and LANDSAT-8 Satellite Orbit:

Table of predicted SNOs for the next 14.0 days since TLE Epoch: 8/20/2022
Index Date (NOAA-20) Time (NOAA-20) Lat,Lon (NOAA-20) SZA (NOAA-20 ) Date (LANDSAT-8) Time (LANDSAT-8) Lat,Lon (LANDSAT-8) SZA (LANDSAT-8 ) Distance(km) Time Diff (sec)
1 08/20/2022 07:22:50 70.09, 65.64 57.63 08/20/2022 07:23:39 70.06, 65.61 57.60 2.90 49
2 08/20/2022 08:13:32 -70.00,-126.91 122.45 08/20/2022 08:13:08 -70.00,-126.85 122.45 2.53 24
3 08/22/2022 23:39:46 70.04,-178.53 58.48 08/22/2022 23:40:09 70.02,-178.58 58.45 3.20 23
4 08/23/2022 00:30:28 -69.95, -11.08 121.61 08/23/2022 00:29:38 -69.96, -11.02 121.60 2.32 50
5 08/25/2022 15:05:59 -70.17, 129.72 120.49 08/25/2022 15:07:10 -70.18, 129.89 120.50 6.33 71
6 08/25/2022 15:56:42 70.00, -62.71 59.35 08/25/2022 15:56:38 70.01, -62.70 59.36 1.71 4
7 08/25/2022 16:47:22 -69.81, 104.90 120.85 08/25/2022 16:46:09 -69.85, 104.71 120.79 8.86 73
8 08/28/2022 07:22:54 -70.08,-114.38 119.66 08/28/2022 07:23:41 -70.06,-114.40 119.69 2.81 47
9 08/28/2022 08:13:38 69.96, 53.11 60.24 08/28/2022 08:13:08 69.95, 53.09 60.22 1.92 30
10 08/30/2022 22:49:20 70.82,-167.11 62.06 08/30/2022 22:50:28 70.74,-165.14 61.92 72.69 68
11 08/30/2022 23:39:49 -70.05, 1.44 118.74 08/30/2022 23:40:09 -70.04, 1.46 118.76 1.35 20
12 08/31/2022 00:30:33 69.93, 168.92 61.15 08/31/2022 00:29:36 69.92, 168.94 61.15 1.14 57
13 09/02/2022 15:06:03 70.11, -50.21 62.28 09/02/2022 15:07:08 70.10, -50.19 62.27 0.85 65
14 09/02/2022 15:56:45 -70.01, 117.25 117.81 09/02/2022 15:56:38 -70.00, 117.30 117.82 2.25 7
15 09/02/2022 16:47:22 69.53, -74.73 61.71 09/02/2022 16:46:11 69.56, -75.68 61.76 37.10 71



Historial Predications of SNOs between NOAA-20 and LANDSAT-8
